Alicante, Spain

8:15 PM CET on March 24, 2017 (GMT +0100)
Alicante

Weather History for LEAL - January, 2013

Change the Weather History Date:

Wednesday, January 9, 2013

  Actual Average Record
Temperature  
Mean Temperature 50 °F -  
Max Temperature 62 °F 60 °F 77 °F (1997)
Min Temperature 39 °F 42 °F 33 °F (2001)
Degree Days  
Heating Degree Days 14    
Moisture  
Dew Point 36 °F    
Average Humidity 55    
Maximum Humidity 81    
Minimum Humidity 24    
Precipitation  
Precipitation 0.00 in - - ()
Sea Level Pressure  
Sea Level Pressure 30.24 in    
Wind  
Wind Speed 10 mph ()    
Max Wind Speed 28 mph    
Max Gust Speed 38 mph    
Visibility 12.0 miles    
Events      
Averages and records for this station are not official NWS values.
T = Trace of Precipitation, MM = Missing Value Source: Averaged Metar Reports

Daily Weather History Graph

Daily Weather History Graph

Search for Another Location

Airport or City:

Trip Planner

Search our weather history database for the weather conditions in past years. The results will help you decide how hot, cold, wet, or windy it might be!

Date:

Astronomy

Jan. 09, 2013 Rise Set
Actual Time 8:19 AM CET 5:59 PM CET
Civil Twilight 7:49 AM CET 6:29 PM CET
Nautical Twilight 7:17 AM CET 7:01 PM CET
Astronomical Twilight 6:45 AM CET 7:33 PM CET
Moon 5:42 AM CET (1/9) 3:46 PM CET (1/9)
Length of Visible Light 10h 39m
Length of Day
9h 40m
Waning Crescent, 8% of the Moon is Illuminated
Jan 9
Waning Crescent
Jan 11
New
Jan 19
First Quarter
Jan 27
Full
Feb 3
Last Quarter

Hourly Weather History & Observations

Time (CET) Temp. Windchill Dew Point Humidity Pressure Visibility Wind Dir Wind Speed Gust Speed Precip Events Conditions
12:00 AM 41.0 °F 39.0 °F 35.6 °F 81% 30.30 in - SW 3.5 mph - N/A   Clear
12:30 AM 42.8 °F 40.1 °F 35.6 °F 76% 30.30 in - WSW 4.6 mph - N/A   Clear
1:00 AM 42 °F - 33 °F 62% 30.30 in 12 mi SW 5.8 mph - -  
1:00 AM 42.8 °F 39.3 °F 35.6 °F 76% 30.27 in - SW 5.8 mph - N/A   Clear
1:30 AM 41.0 °F 37.1 °F 35.6 °F 81% 30.27 in - SSW 5.8 mph - N/A   Clear
2:30 AM 46.4 °F 41.9 °F 35.6 °F 66% 30.27 in - WSW 9.2 mph - N/A   Clear
3:00 AM 42.8 °F 39.3 °F 35.6 °F 76% 30.27 in - SW 5.8 mph - N/A   Clear
3:30 AM 44.6 °F 39.7 °F 35.6 °F 71% 30.27 in - West 9.2 mph - N/A   Clear
4:00 AM 44.6 °F 41.4 °F 35.6 °F 71% 30.27 in - WSW 5.8 mph - N/A   Clear
4:30 AM 46.4 °F 42.9 °F 35.6 °F 66% 30.27 in - WSW 6.9 mph - N/A   Clear
5:00 AM 46.4 °F 43.5 °F 35.6 °F 66% 30.24 in - WSW 5.8 mph - N/A   Clear
5:30 AM 46.4 °F 42.4 °F 35.6 °F 66% 30.24 in - West 8.1 mph - N/A   Clear
6:00 AM 44.6 °F - 35.6 °F 71% 30.24 in - Variable 2.3 mph - N/A   Clear
6:30 AM 46.4 °F - 35.6 °F 66% 30.24 in - Variable 1.2 mph - N/A   Clear
7:00 AM 46 °F - 33 °F 50% 30.25 in 12 mi West 5.8 mph - -  
7:00 AM 46.4 °F 44.3 °F 35.6 °F 66% 30.24 in - West 4.6 mph - N/A   Clear
7:30 AM 46.4 °F 42.9 °F 35.6 °F 66% 30.24 in - West 6.9 mph - N/A   Clear
8:00 AM 46.4 °F 42.4 °F 35.6 °F 66% 30.24 in - West 8.1 mph - N/A   Clear
8:30 AM 48.2 °F - 35.6 °F 62% 30.24 in - West 15.0 mph - N/A   Clear
9:00 AM 48.2 °F - 33.8 °F 58% 30.24 in - West 16.1 mph 27.6 mph N/A   Clear
9:30 AM 50.0 °F - 33.8 °F 54% 30.24 in - West 17.3 mph - N/A   Clear
10:00 AM 51.8 °F - 33.8 °F 50% 30.27 in - West 16.1 mph - N/A   Clear
10:30 AM 51.8 °F - 33.8 °F 50% 30.27 in - WNW 21.9 mph - N/A   Clear
11:00 AM 53.6 °F - 33.8 °F 47% 30.27 in - West 16.1 mph - N/A   Clear
11:30 AM 55.4 °F - 32.0 °F 41% 30.27 in - West 19.6 mph - N/A   Clear
12:00 PM 55.4 °F - 33.8 °F 44% 30.24 in - West 19.6 mph - N/A   Clear
12:30 PM 57.2 °F - 33.8 °F 41% 30.24 in - West 18.4 mph - N/A   Clear
1:00 PM 57 °F - 30 °F 24% 30.26 in 12 mi West 19.6 mph - -   Clear
1:00 PM 57.2 °F - 33.8 °F 41% 30.24 in - West 19.6 mph - N/A   Clear
1:30 PM 57.2 °F - 32.0 °F 38% 30.21 in - West 15.0 mph - N/A   Clear
2:00 PM 57.2 °F - 33.8 °F 41% 30.21 in - WNW 15.0 mph - N/A   Clear
2:30 PM 57.2 °F - 33.8 °F 41% 30.21 in - West 16.1 mph - N/A   Clear
3:00 PM 59.0 °F - 32.0 °F 36% 30.21 in - West 12.7 mph - N/A   Clear
3:30 PM 60.8 °F - 35.6 °F 39% 30.21 in - West 13.8 mph - N/A   Clear
4:00 PM 60.8 °F - 37.4 °F 42% 30.18 in - WNW 11.5 mph - N/A   Clear
4:30 PM 62.6 °F - 37.4 °F 39% 30.18 in - WNW 13.8 mph - N/A   Clear
5:00 PM 60.8 °F - 37.4 °F 42% 30.21 in - West 16.1 mph - N/A   Clear
5:30 PM 59.0 °F - 37.4 °F 45% 30.18 in - WNW 18.4 mph - N/A   Clear
6:00 PM 59.0 °F - 37.4 °F 45% 30.21 in - WNW 13.8 mph - N/A   Clear
6:30 PM 59.0 °F - 37.4 °F 45% 30.21 in - West 16.1 mph - N/A   Clear
7:00 PM 57 °F - 37 °F 35% 30.22 in 12 mi WNW 27.6 mph - -   Clear
7:00 PM 57.2 °F - 39.2 °F 51% 30.21 in - WNW 26.5 mph 38.0 mph N/A   Clear
7:30 PM 57.2 °F - 41.0 °F 55% 30.24 in - WNW 20.7 mph 32.2 mph N/A   Clear
8:00 PM 55.4 °F - 41.0 °F 58% 30.24 in - West 13.8 mph 25.3 mph N/A   Clear
8:30 PM 55.4 °F - 41.0 °F 58% 30.24 in - WNW 16.1 mph - N/A   Clear
9:00 PM 55.4 °F - 41.0 °F 58% 30.27 in - West 11.5 mph - N/A   Clear
9:30 PM 55.4 °F - 41.0 °F 58% 30.27 in - West 12.7 mph - N/A   Clear
10:00 PM 55.4 °F - 42.8 °F 63% 30.27 in - West 10.4 mph - N/A   Clear
10:30 PM 57.2 °F - 42.8 °F 59% 30.24 in - WNW 15.0 mph - N/A   Clear
11:00 PM 57.2 °F - 42.8 °F 59% 30.27 in - West 15.0 mph 28.8 mph N/A   Clear
11:30 PM 55.4 °F - 42.8 °F 63% 30.27 in - West 9.2 mph - N/A   Clear